Location: Filler
(36.7551°N, 30.4456°E)
Time: 07:24:32
(UTC+00:00)

Cosmos 1782 - Pass Details

Date: 19 June 2024
Orbit: 506 x 518 km, 82.5° (Epoch: 22 July)

Event Time Altitude Azimuth Distance (km) Brightness Sun altitude
Rises 01:47:21 0° 345° (NNW) 2,651 6.6 -9.4°
Reaches altitude 10° 01:49:35 10° 338° (NNW) 1,756 5.6 -9.0°
Maximum altitude 01:53:13 41° 267° (W) 757 3.2 -8.5°
Drops below altitude 10° 01:56:48 10° 197° (SSW) 1,734 4.9 -7.9°
Enters shadow 01:58:23 - 191° (S) 2,367 5.6 -7.7°
